| time (UTC) | temp F | wind direction | speed knots | gust knots | rain 1hr in | rain 24hr in | rain mn in | humidity % | barometer mb |
| 20260503003042 | 61 | 208 | 4.3 | 22.6 | 0.00 | 0.00 | 0.00 | 41 | 1010.6 |
| 20260503001544 | 62 | 202 | 5.2 | 9.6 | 0.00 | 0.00 | 0.00 | 38 | 1010.3 |
| 20260503000041 | 63 | 209 | 3.5 | 7.8 | 0.00 | 0.00 | 0.00 | 37 | 1010.4 |
| 20260502234603 | 63 | 217 | 5.2 | 13.9 | 0.00 | 0.00 | 0.00 | 36 | 1010.4 |
| 20260502233042 | 63 | 194 | 5.2 | 13.9 | 0.00 | 0.00 | 0.00 | 36 | 1010.6 |
| 20260502231541 | 63 | 192 | 5.2 | 11.3 | 0.00 | 0.00 | 0.00 | 36 | 1010.8 |
| 20260502230042 | 63 | 216 | 5.2 | 12.2 | 0.00 | 0.00 | 0.00 | 35 | 1010.8 |
| 20260502224543 | 64 | 182 | 4.3 | 15.6 | 0.00 | 0.00 | 0.00 | 35 | 1011.1 |
| 20260502223058 | 63 | 198 | 7.0 | 15.6 | 0.00 | 0.00 | 0.00 | 35 | 1011.1 |
| 20260502221544 | 64 | 211 | 4.3 | 12.2 | 0.00 | 0.00 | 0.00 | 34 | 1011.4 |
| 20260502220057 | 64 | 287 | 4.3 | 13.9 | 0.00 | 0.00 | 0.00 | 33 | 1011.6 |
| 20260502214549 | 64 | 244 | 2.6 | 13.9 | 0.00 | 0.00 | 0.00 | 33 | 1011.8 |
| 20260502213051 | 63 | 218 | 5.2 | 13.9 | 0.00 | 0.00 | 0.00 | 34 | 1011.9 |
| 20260502211552 | 63 | 251 | 7.0 | 14.8 | 0.00 | 0.00 | 0.00 | 34 | 1012.3 |
| 20260502210051 | 63 | 258 | 4.3 | 10.4 | 0.00 | 0.00 | 0.00 | 35 | 1012.6 |
| 20260502204544 | 63 | 349 | 5.2 | 12.2 | 0.00 | 0.00 | 0.00 | 36 | 1012.8 |
| 20260502203055 | 62 | 233 | 3.5 | 12.2 | 0.00 | 0.00 | 0.00 | 35 | 1013.0 |
| 20260502201543 | 61 | 210 | 7.0 | 14.8 | 0.00 | 0.00 | 0.00 | 35 | 1013.3 |
| 20260502200051 | 61 | 215 | 6.1 | 13.0 | 0.00 | 0.00 | 0.00 | 35 | 1013.7 |
| 20260502194545 | 60 | 292 | 6.1 | 12.2 | 0.00 | 0.00 | 0.00 | 36 | 1013.9 |
| 20260502193056 | 59 | 230 | 4.3 | 13.0 | 0.00 | 0.00 | 0.00 | 36 | 1014.2 |
| 20260502191542 | 59 | 304 | 2.6 | 12.2 | 0.00 | 0.00 | 0.00 | 37 | 1014.5 |
| 20260502190046 | 59 | 86 | 2.6 | 9.6 | 0.00 | 0.00 | 0.00 | 35 | 1014.7 |
| 20260502184550 | 58 | 197 | 5.2 | 10.4 | 0.00 | 0.00 | 0.00 | 36 | 1015.0 |
| 20260502183037 | 58 | 186 | 7.0 | 17.4 | 0.00 | 0.00 | 0.00 | 36 | 1015.2 |
| 20260502181544 | 57 | 198 | 4.3 | 10.4 | 0.00 | 0.00 | 0.00 | 37 | 1015.3 |
| 20260502163043 | 55 | 211 | 4.3 | 11.3 | 0.00 | 0.00 | 0.00 | 39 | 1017.0 |
| 20260502161540 | 54 | 254 | 1.7 | 12.2 | 0.00 | 0.00 | 0.00 | 43 | 1017.1 |
| 20260502151607 | 52 | 254 | 4.3 | 8.7 | 0.00 | 0.00 | 0.00 | 44 | 1017.5 |
| 20260502123042 | 37 | 231 | 3.5 | 7.0 | 0.00 | 0.00 | 0.00 | 73 | 1017.8 |
| 20260502121542 | 36 | 209 | 2.6 | 6.1 | 0.00 | 0.00 | 0.00 | 75 | 1017.7 |
| 20260502114537 | 34 | 213 | 2.6 | 4.3 | 0.00 | 0.00 | 0.00 | 77 | 1017.6 |
| 20260502113045 | 33 | 208 | 2.6 | 4.3 | 0.00 | 0.00 | 0.00 | 78 | 1017.4 |
| 20260502111541 | 33 | 204 | 1.7 | 4.3 | 0.00 | 0.00 | 0.00 | 77 | 1017.4 |
| 20260502110046 | 33 | 203 | 1.7 | 3.5 | 0.00 | 0.00 | 0.00 | 77 | 1017.4 |
| 20260502104541 | 34 | 198 | 1.7 | 3.5 | 0.00 | 0.00 | 0.00 | 76 | 1017.5 |
| 20260502103042 | 34 | 192 | 1.7 | 2.6 | 0.00 | 0.00 | 0.00 | 77 | 1017.5 |
| 20260502101556 | 34 | 197 | 1.7 | 3.5 | 0.00 | 0.00 | 0.00 | 76 | 1017.5 |
| 20260502070057 | 36 | 198 | 1.7 | 3.5 | 0.00 | 0.00 | 0.00 | 68 | 1017.7 |
| 20260502064537 | 36 | 199 | 1.7 | 3.5 | 0.00 | 0.00 | 0.00 | 68 | 1017.8 |
| 20260502063037 | 36 | 198 | 1.7 | 2.6 | 0.00 | 0.00 | 0.00 | 67 | 1017.9 |
| 20260502061543 | 37 | 200 | 1.7 | 3.5 | 0.00 | 0.00 | 0.00 | 65 | 1017.9 |
| 20260502060045 | 37 | 205 | 1.7 | 3.5 | 0.00 | 0.00 | 0.00 | 65 | 1017.9 |
| 20260502054557 | 37 | 275 | 1.7 | 2.6 | 0.00 | 0.00 | 0.00 | 64 | 1018.0 |
| 20260502053043 | 37 | 279 | 0.9 | 2.6 | 0.00 | 0.00 | 0.00 | 63 | 1018.0 |
| 20260502051537 | 38 | 280 | 0.9 | 2.6 | 0.00 | 0.00 | 0.00 | 62 | 1018.0 |
| 20260502050049 | 38 | 280 | 1.7 | 2.6 | 0.00 | 0.00 | 0.00 | 61 | 1017.9 |
| 20260502044541 | 39 | 281 | 0.9 | 2.6 | 0.00 | 0.00 | 0.00 | 60 | 1017.7 |
| 20260502043051 | 39 | 0 | 0.0 | 0.0 | 0.00 | 0.00 | 0.00 | 59 | 1017.8 |
| 20260502041609 | 39 | 0 | 0.0 | 0.0 | 0.00 | 0.00 | 0.00 | 58 | 1017.7 |
| 20260502040053 | 40 | 0 | 0.0 | 0.0 | 0.00 | 0.00 | 0.00 | 57 | 1017.8 |
| 20260502034547 | 41 | 0 | 0.0 | 0.0 | 0.00 | 0.00 | 0.00 | 55 | 1017.9 |
| 20260502033042 | 42 | 0 | 0.0 | 0.0 | 0.00 | 0.00 | 0.00 | 53 | 1017.9 |
| 20260502031543 | 43 | 0 | 0.0 | 0.0 | 0.00 | 0.00 | 0.00 | 49 | 1017.9 |
| 20260502030108 | 44 | 0 | 0.0 | 0.0 | 0.00 | 0.00 | 0.00 | 47 | 1017.9 |
| 20260502024551 | 44 | 0 | 0.0 | 0.0 | 0.00 | 0.00 | 0.00 | 46 | 1017.8 |
| 20260502023100 | 45 | 0 | 0.0 | 0.0 | 0.00 | 0.00 | 0.00 | 47 | 1017.8 |
| 20260502021538 | 46 | 0 | 0.0 | 0.0 | 0.00 | 0.00 | 0.00 | 45 | 1017.7 |
| 20260502020041 | 47 | 0 | 0.0 | 0.9 | 0.00 | 0.00 | 0.00 | 44 | 1017.6 |
| 20260502014541 | 48 | 0 | 0.0 | 0.9 | 0.00 | 0.00 | 0.00 | 42 | 1017.3 |
| 20260502013044 | 49 | 0 | 0.0 | 4.3 | 0.00 | 0.00 | 0.00 | 40 | 1017.3 |
| 20260502011557 | 49 | 319 | 1.7 | 7.0 | 0.00 | 0.00 | 0.00 | 38 | 1017.2 |
| 20260502010044 | 49 | 325 | 1.7 | 4.3 | 0.00 | 0.00 | 0.00 | 40 | 1017.2 |
| 20260502004542 | 49 | 324 | 0.0 | 5.2 | 0.00 | 0.00 | 0.00 | 38 | 1017.1 |